Regional Weather Roundup
Issued by NWS New Orleans/Baton Rouge, LA

Home | Current Version | Previous Version | Graphics & Text | Print | Product List | Glossary On
Versions: 1 2 3 4 5 6 7 8 9 10 11 12 13 14 15 16 17 18 19 20 21 22 23 24 25 26 27 28 29 30 31 32 33 34 35 36 37 38 39 40 41 42 43 44 45 46 47 48 49 50
057
ASUS44 KLIX 300210
RWRLIX
NEW ORLEANS REGIONAL WEATHER ROUNDUP
NATIONAL WEATHER SERVICE NEW ORLEANS LA
900 PM CDT MON SEP 29 2014

NOTE: "FAIR" INDICATES FEW OR NO CLOUDS BELOW 12,000 FEET WITH NO
      SIGNIFICANT WEATHER AND/OR OBSTRUCTIONS TO VISIBILITY.
      SKY/WX - SKY CONDITION AND SIGNIFICANT WEATHER.
      TMP - AIR TEMPERATURE.     DP    - DEWPOINT TEMPERATURE.
      RH  - RELATIVE HUMIDITY.   PRES  - PRESSURE.
      HI  - HEAT INDEX.          WCI   - WIND CHILL INDEX.

*  THESE STATIONS ARE NOT NWS OR FAA STATIONS AND ARE NOT UNDER
   NWS QUALITY CONTROL.

LAZ038-040-048-061>063-065>067-069-300300-
SOUTHEAST LOUISIANA

CITY           SKY/WX    TMP DP  RH WIND       PRES   REMARKS
N.O. AUDUBON     N/A     76  73  88 MISG        N/A
N.O. INTL ARPT PTCLDY    77  70  79 CALM      29.88R
N.O. LAKEFRONT CLEAR     79  74  84 CALM      29.89R
N.O. DOWNTOWN*   N/A     81  68  65 CALM      29.89R
SLIDELL        CLEAR     75  72  90 CALM      29.88R
BATON ROUGE    CLEAR     74  71  91 CALM      29.89R
BOOTHVILLE     CLEAR     78  73  84 NE3       29.88R
BELLE CHASSE   PTCLDY    74  70  87 CALM      29.88R
BOGALUSA*        N/A     75  71  87 CALM      29.91R
GALLIANO*      NOT AVBL
NEW ROADS*       N/A     75  74  97 CALM      29.90R
GONZALES*      CLOUDY    76  76 100 CALM      29.89R
HAMMOND*       CLEAR     75  70  83 CALM      29.91R
HOUMA*         MOCLDY   N/A N/A N/A CALM      29.89R
PORT FOURCHON* CLEAR     81  73  78 NE5       29.91S

$$

MSZ070-080>082-300300-
SOUTHERN MISSISSIPPI

CITY           SKY/WX    TMP DP  RH WIND       PRES   REMARKS
MCCOMB         CLEAR     77  69  76 NE5       29.91R
GULFPORT       CLOUDY    79  71  76 NE3       29.88R
BILOXI         MOCLDY    78  73  86 NE5       29.88S
PASCAGOULA     CLOUDY    75  72  90 CALM      29.89R
STENNIS ARPT*  PTCLDY    73  70  88 CALM      29.88S

$$

COASTAL OBSERVATIONS
LAKE AND NEARSHORE STATIONS

STATION/POSITION TIME  TEMP    WIND        PRES    WAVE
                       AIR SEA DIR/SP/G            HT/PER
                 (UTC) (F)     (DEG/KT/KT) (MB)    (FT/S)
PASCAGOULA       0200           30/  5/  7 1011.5
WAVELAND YACHT   0200          300/  1/  2 1011.3
GRAND ISLE       0200      81   70/  4/  6 1012.4
SOUTHWEST PASS   0200      86   40/  7/  7 1011.9
NEW CANAL        0200      78   30/  1/  2 1012.3
SHELL BEACH      0200      74  350/  4/  5 1011.7

OFFSHORE STATIONS

STATION/POSITION TIME  TEMP    WIND        PRES    WAVE
                       AIR SEA DIR/SP/G            HT/PER
                 (UTC) (F)     (DEG/KT/KT) (MB)    (FT/S)
64 S DAUPHIN ISL 0051   79 82   20/  8/ 10 1011.8    2/ 5

$$




USA.gov is the U.S. government's official web portal to all federal, state and local government web resources and services.